ECMWFFLT2_500_spd_132.txt.gz
Wind_Speed
17 17 17 16 15 14 14 14 13 13 13 13 12 12 10 9 7 6 6 7 8 9 10 12 13 14 14 13 11 11 10 10 10 10 10 10 12 14 15 15 16 18 19 18 18 18 18 18 18 18 19 18 18 18 17 15 14 15 16 17 16 15
16 17 17 16 15 14 14 13 13 13 14 14 13 13 11 10 7 6 7 7 8 8 9 11 12 13 13 12 11 10 11 12 11 11 10 10 11 13 14 15 17 18 19 18 19 19 19 19 19 19 19 19 19 19 18 16 15 14 15 16 15 15
17 17 17 16 15 14 14 13 12 13 14 14 15 14 12 10 8 7 7 7 7 7 8 10 11 12 12 11 10 10 11 12 12 12 12 11 11 12 14 15 16 18 18 17 18 19 20 20 19 19 19 19 19 19 19 19 17 16 15 15 14 14
18 17 16 16 15 15 14 13 12 13 14 15 15 15 13 11 9 8 8 7 7 7 8 9 10 10 10 10 9 10 11 12 13 13 13 13 13 13 14 15 16 17 17 16 17 19 20 20 20 20 20 20 19 19 19 19 19 18 15 16 15 14
18 18 17 17 16 15 14 13 13 13 14 16 16 15 14 11 10 9 8 8 7 7 7 8 9 9 9 9 9 9 10 11 12 13 14 14 15 15 16 16 16 17 16 14 15 17 19 20 20 20 20 20 20 19 18 18 19 19 17 17 17 16
19 18 18 17 16 16 14 13 13 14 15 16 17 16 14 12 11 10 9 9 8 8 8 8 9 8 9 9 9 10 10 11 11 12 13 14 15 16 16 17 17 18 17 15 15 16 18 19 20 20 20 21 20 19 18 18 18 19 17 18 19 18
19 20 19 18 17 16 15 14 14 15 16 17 17 16 14 13 12 11 10 10 9 9 8 8 9 8 8 8 9 10 10 11 11 11 12 14 15 15 16 17 18 19 18 17 16 17 17 18 19 20 20 21 21 19 18 18 18 19 17 16 19 19
19 20 19 18 17 16 16 15 15 16 17 17 17 16 14 14 14 12 11 11 11 10 9 9 9 8 7 8 8 9 10 11 11 11 12 13 14 15 16 16 17 18 19 18 18 19 19 19 19 19 21 21 21 20 20 19 18 19 18 15 18 19
20 20 19 19 17 17 17 16 16 17 17 18 17 16 16 16 15 14 13 13 12 11 10 10 9 9 8 8 8 9 10 11 11 11 12 13 14 14 15 15 16 17 18 19 19 20 20 20 20 20 21 21 21 21 21 21 20 20 19 16 16 19
20 20 19 19 18 18 18 17 17 18 19 18 18 17 17 17 16 15 14 14 13 12 11 11 10 10 9 9 8 9 10 10 10 11 11 12 13 14 14 15 16 17 18 19 20 20 20 21 21 20 20 21 21 21 21 21 21 21 20 18 16 17
19 20 20 20 19 19 19 18 19 20 20 19 19 19 18 17 17 16 16 15 13 13 12 12 11 11 11 10 10 10 10 11 11 12 12 12 13 13 14 15 16 17 18 18 19 19 20 20 21 21 20 21 21 21 21 22 22 22 21 20 17 17
19 20 21 21 20 20 20 20 20 21 21 20 21 20 19 18 18 17 16 15 14 13 13 12 13 12 12 12 11 11 12 12 12 13 13 14 14 14 14 15 16 17 17 18 18 18 19 19 21 22 22 21 21 20 20 21 23 23 22 21 18 18
20 21 21 22 21 21 20 21 21 22 22 22 22 21 20 19 19 18 16 16 15 14 14 13 13 12 12 12 12 12 13 13 14 14 15 15 15 15 15 16 16 17 17 17 17 18 18 18 20 22 22 23 22 21 21 21 22 23 23 23 21 19
21 22 22 23 22 22 22 22 23 23 24 24 23 21 21 20 19 18 17 16 15 14 14 13 13 13 12 11 11 12 12 14 15 15 16 17 17 17 16 17 17 17 17 17 17 17 17 18 19 21 22 23 24 24 22 22 22 22 23 24 23 21
23 23 23 24 23 23 23 23 24 24 25 25 23 22 21 21 20 19 18 17 16 14 14 13 13 13 12 12 11 11 12 13 14 16 17 17 18 18 18 18 18 18 18 18 17 17 17 18 19 20 21 22 24 25 24 23 23 23 23 23 24 23
24 24 24 25 24 24 24 24 25 25 26 25 24 23 22 21 20 19 18 17 16 14 14 13 13 13 12 11 11 10 11 12 13 15 16 17 18 18 18 18 18 18 18 18 18 17 17 18 19 20 21 22 23 24 25 24 24 24 23 24 24 24
25 26 26 26 25 24 25 25 25 26 26 26 25 24 23 22 20 19 18 17 16 15 14 14 14 13 12 11 11 10 10 11 12 14 15 16 17 18 18 18 18 18 18 18 18 18 18 18 19 20 21 23 24 25 25 25 24 25 24 24 25 25
27 27 27 26 25 25 26 26 27 27 27 26 25 24 23 21 20 18 18 17 16 15 14 14 14 13 13 12 12 11 11 11 12 13 14 15 16 18 19 19 20 19 19 18 18 18 18 19 20 21 22 23 24 25 26 26 25 25 25 26 26 26
29 29 28 27 27 27 27 27 27 27 27 26 24 23 22 21 19 18 18 17 15 15 15 15 14 14 13 12 12 12 11 11 12 14 15 16 17 19 20 20 21 20 19 19 18 18 18 19 20 21 23 24 25 25 26 27 27 26 26 26 26 26
30 29 28 27 26 26 26 25 25 25 25 25 24 22 21 20 19 19 18 16 15 15 15 15 14 14 14 13 13 13 12 12 13 14 15 17 18 19 20 21 21 20 19 19 18 18 18 19 20 21 23 24 26 26 27 27 27 27 27 27 27 26
28 26 24 24 24 24 24 23 23 24 23 23 23 22 21 20 19 19 18 16 16 16 16 15 15 15 14 14 14 13 13 13 14 15 16 17 18 20 21 21 21 21 20 19 18 18 19 19 20 21 22 24 26 27 28 28 28 28 28 28 28 27
24 22 22 23 23 23 23 23 23 23 23 23 23 22 22 20 19 19 18 17 17 17 16 16 15 15 14 14 14 14 14 14 15 16 17 18 19 20 21 21 22 22 21 20 19 19 19 20 21 21 22 23 25 26 28 29 29 29 30 30 29 28
22 21 22 24 25 23 22 23 24 24 23 23 22 20 20 20 19 19 18 18 17 17 17 16 16 15 15 15 14 15 15 15 16 17 18 18 19 20 21 21 22 22 22 21 20 20 20 21 22 23 23 23 24 25 26 28 29 29 29 29 30 29
23 23 24 26 25 23 22 22 22 22 21 22 21 20 19 19 18 18 18 18 17 17 17 16 16 15 15 15 15 15 15 16 17 18 19 19 19 20 21 21 22 22 22 22 21 20 20 20 21 23 25 25 26 26 26 28 29 29 29 28 29 29
26 25 25 25 23 23 23 23 22 21 21 21 21 21 18 17 17 18 18 17 17 17 17 16 16 15 15 15 15 15 16 16 17 18 19 20 20 21 21 21 22 22 23 22 22 21 21 20 21 23 25 26 27 27 28 29 29 29 30 29 29 29
26 26 26 26 25 25 26 25 24 23 24 23 22 21 18 15 17 18 17 17 16 16 16 15 15 15 15 15 15 16 16 17 18 19 20 20 21 22 22 22 22 22 23 23 22 22 21 21 22 23 25 27 28 29 29 30 31 30 30 31 31 30
26 26 25 25 25 26 27 27 27 25 25 25 24 23 19 17 17 17 17 16 16 15 15 15 15 14 14 15 15 16 17 18 19 20 21 21 22 23 23 23 23 23 23 23 22 22 22 22 22 23 25 26 28 29 30 31 32 31 30 30 31 32
25 24 23 24 24 25 27 28 29 27 25 24 24 24 20 18 18 17 16 16 15 15 15 14 14 14 15 15 16 17 18 19 20 21 22 22 23 23 24 24 24 24 24 23 23 22 22 22 22 23 25 26 27 29 31 32 32 32 30 28 29 31
24 22 22 22 22 23 25 27 29 28 26 24 24 24 21 19 18 17 16 16 15 15 14 14 14 14 14 15 16 18 19 20 21 21 22 22 23 23 24 24 24 24 24 24 24 23 23 23 23 23 25 26 28 29 31 32 33 33 32 30 28 29
23 23 21 20 19 20 21 25 27 28 27 25 25 24 21 18 18 17 16 15 15 14 14 14 14 14 14 15 17 18 20 20 21 21 21 22 23 23 24 24 24 24 24 24 24 24 24 24 24 24 25 26 27 29 31 32 33 33 33 32 30 30
23 23 22 20 19 20 22 24 25 25 26 26 26 24 20 18 17 16 15 15 14 14 14 13 13 14 14 16 17 19 20 20 21 22 22 22 23 23 24 24 24 24 25 25 25 25 25 24 24 25 25 26 27 29 31 33 33 34 34 33 32 31
22 22 22 20 20 22 24 25 25 25 26 26 25 23 18 17 17 16 16 15 15 14 13 13 13 14 15 17 19 20 20 21 22 22 23 23 23 23 24 24 24 24 25 25 25 25 25 25 25 25 26 26 27 29 31 34 35 35 35 35 34 33
20 20 20 19 17 18 20 21 24 26 26 26 25 21 16 15 16 16 16 15 15 14 13 13 14 15 17 18 19 20 21 21 22 23 23 22 22 22 23 23 24 24 25 26 26 26 26 26 26 26 27 27 27 28 31 34 35 35 35 35 35 34
17 17 17 15 13 13 13 15 18 21 23 24 24 20 15 15 17 17 16 15 15 15 14 14 15 16 17 19 19 20 21 21 22 22 22 21 21 22 22 23 23 24 25 26 26 26 26 26 26 27 28 28 27 28 30 32 34 35 34 33 33 32
15 14 13 12 11 13 13 14 15 19 21 23 23 18 14 15 16 16 16 16 16 15 15 15 16 17 18 19 19 20 20 21 21 21 21 21 21 22 23 23 24 25 25 26 27 27 26 26 27 27 29 29 28 28 30 31 33 33 33 33 32 31
15 15 13 13 13 15 15 16 17 20 20 20 20 16 14 15 16 17 17 17 17 16 16 16 16 17 18 19 19 19 19 20 20 21 21 22 23 23 24 25 25 26 26 26 27 28 27 27 27 28 29 29 29 29 30 31 32 33 33 32 32 32
14 15 16 16 15 14 15 16 19 21 19 17 18 18 17 16 17 18 18 18 18 17 17 16 17 17 17 18 18 19 19 20 21 22 23 23 24 25 25 26 26 26 26 27 28 28 28 28 28 28 29 29 29 30 31 32 32 33 32 32 31 31

ECMWFFLT2_500_spd_135.txt.gz
Wind_Speed
19 17 16 15 15 14 14 14 13 12 11 11 11 12 12 12 11 11 10 10 9 8 8 9 11 12 12 12 10 9 9 10 10 10 9 9 10 11 12 13 14 15 14 15 16 17 17 17 17 17 17 17 17 16 15 14 12 13 12 11 10 8
18 17 16 15 15 15 14 14 13 12 11 11 12 12 12 12 12 11 11 10 9 8 8 8 10 11 12 12 10 9 9 9 9 10 9 9 9 10 11 12 13 14 14 14 15 16 17 17 17 17 18 17 17 16 15 14 13 14 13 11 10 9
18 17 16 16 15 15 15 15 14 12 11 12 12 13 13 13 12 12 11 11 9 8 8 8 9 10 11 11 11 10 9 8 8 9 9 9 9 10 11 12 13 13 13 13 14 15 16 17 17 17 18 18 17 16 15 15 14 14 15 13 11 11
18 18 17 16 16 16 16 15 14 12 12 12 12 13 13 13 12 13 12 11 9 8 7 8 9 10 10 11 11 11 11 10 9 9 9 9 10 10 10 11 12 13 13 12 13 14 15 16 16 17 17 18 18 16 15 15 14 13 15 15 14 12
19 18 18 17 17 17 17 16 14 13 12 12 13 13 13 13 14 14 13 11 10 8 7 8 9 9 9 10 11 12 12 12 12 11 11 11 11 11 11 11 12 13 12 12 11 13 15 16 16 16 17 17 17 17 16 15 15 13 14 15 15 13
19 19 18 18 18 18 17 16 15 14 13 13 13 13 13 14 15 15 13 12 11 9 8 9 9 9 9 9 10 11 12 13 13 13 13 13 13 13 13 12 12 12 13 12 11 12 13 15 16 17 17 16 16 16 16 15 14 13 12 14 15 15
19 19 18 19 19 19 18 17 16 15 14 13 14 14 14 15 16 15 14 12 11 9 9 10 10 9 8 9 9 10 11 12 13 14 15 15 15 15 16 15 14 14 14 14 13 12 12 12 14 16 17 17 17 16 16 16 15 13 12 13 14 15
20 19 19 19 20 19 18 17 17 16 15 14 14 14 14 15 16 16 14 13 11 11 11 11 10 9 8 8 9 10 11 12 13 13 15 16 16 16 17 17 17 17 17 17 17 15 13 12 12 13 14 16 17 17 17 17 16 15 13 13 14 14
20 20 20 20 20 20 19 19 18 17 16 15 14 14 15 16 16 16 15 14 13 12 12 12 10 9 9 9 9 10 10 11 12 13 14 15 16 16 17 17 18 18 19 19 19 19 16 14 13 13 13 14 15 16 17 17 17 16 15 14 14 14
20 21 21 21 20 20 20 20 19 18 17 16 15 15 16 16 16 17 16 15 14 14 13 12 11 9 9 9 9 9 10 11 11 13 13 14 15 15 16 16 17 18 18 19 19 20 18 16 14 14 14 15 15 16 17 18 18 18 16 15 15 14
20 21 22 21 21 21 21 20 20 19 18 16 16 16 16 16 17 17 17 16 15 15 14 13 12 10 9 9 9 8 9 9 10 12 12 13 13 14 15 15 16 17 17 17 18 19 19 18 17 15 14 15 16 17 17 18 18 19 18 17 16 16
21 23 23 21 20 21 22 21 20 20 19 18 18 18 17 17 18 18 17 17 17 16 15 14 13 11 10 9 9 8 8 9 10 11 12 13 13 14 15 15 16 16 17 17 17 17 17 17 17 17 15 14 15 17 18 18 18 19 19 18 18 18
22 23 22 21 21 22 22 21 21 21 19 19 20 18 17 19 19 19 18 18 18 17 16 15 13 12 11 11 10 9 8 9 10 11 12 13 13 14 15 15 16 17 17 17 17 17 16 16 16 16 16 16 16 16 17 18 19 19 20 19 19 19
23 23 22 21 21 22 22 21 22 22 20 21 20 19 19 20 20 19 18 19 18 17 16 16 14 13 12 12 11 10 10 10 10 10 11 12 13 14 15 16 16 17 17 17 18 17 16 16 16 16 16 17 17 17 17 18 19 20 20 20 19 19
23 22 21 21 22 23 23 22 23 22 21 22 21 20 21 21 20 20 19 19 18 18 17 16 14 13 13 12 12 11 11 11 11 11 11 12 13 14 15 16 16 17 18 18 18 18 17 17 16 16 17 17 18 18 18 18 18 19 20 21 21 20
22 22 22 22 23 23 23 22 22 22 22 22 21 21 22 21 21 21 20 19 18 18 17 16 15 14 13 13 12 12 12 11 11 11 11 12 13 13 15 15 16 16 17 18 19 19 18 17 17 18 18 19 19 20 20 19 19 20 20 21 21 21
21 22 22 22 22 22 20 20 20 21 20 21 21 22 22 23 24 23 21 19 19 18 17 16 15 14 14 13 13 13 12 12 12 11 11 12 13 13 14 15 16 17 18 19 19 19 18 17 18 18 18 19 21 22 22 22 22 22 21 21 21 22
21 22 22 21 21 20 18 19 19 19 19 19 20 21 22 25 27 26 22 20 19 18 17 16 15 14 14 14 14 14 13 13 12 11 11 12 13 14 15 16 16 17 18 19 19 19 18 18 18 18 18 19 21 22 23 23 24 23 23 23 22 22
21 22 21 21 20 18 18 19 18 17 18 19 20 20 20 22 24 24 21 20 19 18 17 16 15 14 14 14 14 14 13 13 13 12 12 12 13 14 15 16 17 17 18 19 20 19 19 19 18 19 19 19 20 21 23 24 24 24 23 24 24 24
22 21 20 21 20 18 18 18 17 18 19 20 20 20 20 19 20 20 20 19 19 18 17 15 15 14 15 15 15 14 14 14 13 13 13 13 14 14 15 16 17 18 19 19 20 20 20 20 20 19 19 20 20 21 23 24 25 25 25 24 25 25
21 20 20 20 19 18 18 18 18 19 20 20 20 21 20 20 19 19 19 19 18 16 16 15 14 15 15 16 15 15 15 14 14 14 14 14 14 15 15 16 17 18 19 20 20 21 21 21 21 20 20 20 20 21 23 23 25 26 26 26 26 25
20 21 21 20 19 19 19 19 19 20 21 20 20 20 20 20 19 18 18 19 17 16 15 15 15 15 16 16 16 16 16 15 14 15 15 15 15 15 16 16 17 18 19 20 21 21 21 22 22 22 21 20 21 22 23 23 24 25 26 27 27 27
21 20 20 20 20 19 19 19 19 20 21 20 19 19 19 20 21 20 20 19 17 15 15 15 15 16 16 16 16 16 16 15 15 16 16 16 16 16 17 18 18 19 19 20 21 22 22 22 22 22 22 21 21 21 23 23 24 25 25 25 26 27
23 21 20 20 20 20 20 20 20 20 21 20 19 20 20 21 22 23 23 20 16 16 16 16 16 16 16 16 16 16 15 15 16 16 16 16 16 17 18 19 19 20 20 21 22 22 23 23 23 23 23 23 22 22 22 23 23 25 25 25 25 26
25 22 21 20 20 20 20 20 21 21 22 21 20 19 18 19 21 22 22 19 15 16 17 16 16 16 16 16 16 15 15 15 16 17 17 17 17 18 19 20 21 21 21 22 23 23 24 24 24 24 24 24 24 23 23 23 23 25 26 26 26 26
28 25 23 22 20 21 21 21 22 21 22 22 21 19 18 19 20 21 21 16 14 17 18 16 16 16 16 16 15 15 15 15 16 17 17 17 18 19 20 20 21 22 23 23 24 24 25 25 25 25 25 26 26 25 25 25 24 25 27 28 28 27
26 26 26 24 22 21 20 21 22 22 22 23 22 22 20 19 21 22 22 18 15 18 18 16 16 16 16 16 15 15 15 15 16 16 17 18 19 19 20 21 21 22 24 24 24 24 25 25 26 26 26 26 27 27 27 27 27 26 26 28 29 29
23 24 25 24 22 20 20 20 21 22 23 23 23 22 21 19 21 23 24 20 17 18 17 16 16 16 16 16 15 15 14 14 15 16 17 18 19 20 21 22 23 24 24 25 24 24 24 25 25 26 27 27 27 27 28 28 28 28 27 27 28 29
23 21 21 23 23 21 20 20 20 22 22 23 22 22 21 19 20 23 22 19 17 18 17 16 16 16 16 15 15 14 14 14 15 16 17 18 19 20 22 23 24 24 25 25 25 25 25 25 26 26 27 28 28 28 29 29 29 29 29 27 27 28
21 20 19 19 21 21 20 20 20 22 22 22 21 21 21 20 20 22 21 18 17 17 16 16 16 16 16 15 15 14 14 14 15 16 18 19 20 21 22 22 23 24 24 25 25 25 26 26 27 27 28 29 29 29 30 30 30 30 30 28 28 28
19 18 17 16 19 21 21 20 19 20 20 19 19 20 21 21 20 20 21 18 17 17 15 15 16 16 16 15 15 14 14 15 16 17 18 19 20 21 21 21 22 23 24 24 25 26 27 27 28 28 29 29 30 30 30 30 31 31 30 29 28 28
18 17 16 16 18 19 19 18 17 18 18 19 20 20 21 21 21 22 21 18 17 16 15 15 16 17 16 15 15 14 15 16 16 18 19 20 20 20 20 20 21 22 23 24 25 26 27 28 28 29 30 30 31 31 31 31 31 31 31 30 29 28
16 15 16 16 17 16 15 15 15 15 17 21 23 22 22 22 22 25 24 20 17 15 14 15 16 17 16 15 15 15 16 16 17 18 19 19 19 19 19 20 21 23 24 25 26 26 27 28 29 29 30 31 32 32 32 32 31 31 31 30 30 29
12 13 14 14 14 14 12 12 11 11 13 18 22 23 22 22 24 25 23 19 17 15 14 16 17 17 17 16 16 16 16 17 18 18 19 19 18 19 19 21 22 24 25 26 26 27 28 28 29 29 30 31 32 33 33 32 32 31 31 31 30 29
14 14 14 13 13 13 11 10 10 11 11 14 19 22 23 23 25 25 19 16 16 15 16 18 18 17 17 16 17 17 17 17 18 18 18 19 19 20 21 23 24 25 25 26 26 27 27 28 29 29 29 30 31 32 33 33 32 32 31 31 31 31
14 15 14 12 13 13 12 10 10 11 11 11 14 18 21 22 24 21 15 15 17 17 19 19 17 17 17 17 17 17 18 18 18 18 19 19 20 21 23 24 25 25 25 25 26 26 26 27 28 29 30 30 31 32 32 33 33 32 32 32 31 31
12 13 13 13 14 14 12 10 10 10 10 10 11 15 18 21 22 16 12 15 18 19 19 18 16 17 17 17 18 18 18 18 18 18 19 20 21 23 24 25 24 24 25 25 25 25 26 27 28 29 30 30 31 31 32 32 33 32 32 32 32 31

ECMWFFLT2_500_spd_138.txt.gz
Wind_Speed
26 23 22 20 19 18 17 16 14 13 13 13 13 13 12 12 12 13 13 12 11 9 7 6 6 7 8 9 9 9 9 9 9 10 9 9 9 9 10 10 10 11 11 10 9 10 11 12 13 13 13 12 11 10 10 9 9 8 7 6 5 5
25 23 22 20 19 18 17 16 15 14 13 13 13 13 13 13 13 14 14 13 12 10 8 6 6 6 7 8 9 9 9 9 9 10 10 10 10 10 11 11 11 11 11 10 10 10 10 11 12 13 13 12 11 9 10 10 11 10 8 7 7 6
25 23 21 20 20 19 17 16 15 14 14 14 14 14 14 14 14 14 14 14 12 11 9 7 6 6 6 7 8 8 9 9 10 11 11 11 11 11 11 11 11 12 12 11 11 10 11 11 12 12 12 12 11 9 9 10 11 12 10 9 8 7
25 23 21 20 20 19 18 17 16 15 15 14 14 14 14 14 15 15 15 14 13 11 9 8 7 5 5 6 6 7 8 9 10 11 11 11 11 12 12 12 12 12 12 12 12 12 12 11 11 12 12 12 12 10 9 9 11 12 12 11 9 8
25 23 22 21 21 20 18 17 16 16 16 15 15 14 14 14 15 15 15 14 13 12 11 9 8 6 6 6 6 6 7 8 9 10 10 11 11 11 12 12 12 12 13 13 14 13 13 12 11 11 12 12 12 11 10 10 11 12 13 12 11 10
25 23 22 22 21 20 19 18 17 17 16 15 15 15 15 15 15 15 15 14 14 13 12 10 9 8 7 6 6 5 6 7 8 9 9 10 11 11 12 12 13 13 13 13 14 14 14 13 12 11 11 11 11 12 12 11 12 12 13 13 13 12
25 24 23 22 22 21 19 18 17 17 16 16 16 15 15 15 15 15 15 14 14 14 13 11 11 9 8 7 7 6 6 7 8 9 9 10 10 11 12 12 13 14 14 14 14 14 14 13 13 12 12 12 11 11 12 13 13 14 14 14 14 14
26 25 24 23 22 21 19 18 18 17 17 17 16 15 15 15 15 15 15 14 14 15 14 13 12 11 9 8 7 7 7 7 8 9 10 11 11 12 12 13 13 14 14 14 14 14 14 13 12 12 12 13 13 12 12 13 14 15 15 15 15 14
26 25 24 23 22 20 19 18 18 18 17 17 16 16 15 14 14 15 15 14 15 15 15 14 13 12 11 9 8 8 7 8 9 10 11 12 12 13 13 13 13 14 15 15 15 15 14 14 13 12 12 13 14 15 14 13 14 15 16 16 16 15
27 26 24 23 21 20 19 19 19 18 18 17 17 16 15 14 14 14 14 14 15 16 16 15 14 13 12 10 9 9 8 8 9 10 11 12 13 13 13 13 14 14 14 14 15 15 15 16 15 13 12 12 13 14 14 14 14 15 16 16 16 16
27 26 24 23 21 20 20 19 19 18 18 18 17 16 15 14 14 14 13 14 16 17 17 16 15 15 13 12 11 10 9 9 9 10 11 12 13 13 13 13 14 14 15 15 15 16 17 17 16 14 13 12 13 13 14 14 14 15 16 17 18 17
27 26 24 23 21 20 20 19 18 17 18 18 17 16 15 15 14 13 13 15 16 17 18 17 16 16 15 13 12 11 10 10 10 10 10 11 12 13 13 13 14 15 15 15 16 16 17 17 17 16 15 14 14 14 15 15 16 16 16 17 19 19
27 26 24 22 21 20 19 19 18 17 17 17 17 16 16 16 15 13 14 16 17 18 18 18 17 17 16 15 13 12 11 11 10 10 10 11 12 12 12 13 13 14 15 15 16 17 18 18 18 17 16 16 16 15 15 16 17 17 17 17 19 20
27 24 23 22 21 19 18 18 17 17 17 18 17 16 17 16 15 14 15 17 17 18 19 19 19 18 17 16 14 13 12 11 10 9 10 10 11 11 12 13 13 14 15 15 16 17 18 19 19 18 18 17 17 17 17 17 18 19 18 18 18 20
26 23 22 22 20 19 18 18 17 17 18 18 17 17 17 16 14 14 15 17 18 19 20 20 20 19 18 17 15 14 13 12 11 10 10 10 10 11 12 13 14 14 15 15 16 16 17 18 19 19 19 19 19 19 18 18 19 19 20 20 19 19
28 25 23 22 21 19 19 18 17 18 18 17 16 16 16 15 13 13 14 16 18 19 20 21 21 20 19 17 16 15 14 13 11 10 10 10 10 11 12 13 14 15 15 15 16 17 18 19 20 20 19 20 20 20 20 20 20 19 20 21 21 20
30 29 25 22 21 20 19 18 17 18 18 16 16 16 16 15 14 15 15 17 18 19 21 21 21 21 20 18 17 16 15 14 12 12 11 11 11 12 12 14 15 15 15 16 17 18 19 21 22 21 21 21 21 21 21 21 21 21 21 21 21 21
31 31 26 22 21 20 19 19 18 19 18 17 16 16 16 16 16 17 18 20 21 22 23 22 21 22 21 19 18 17 16 15 13 13 12 12 12 12 13 14 15 16 16 17 17 18 20 21 22 23 23 23 22 22 22 21 22 22 22 22 22 22
32 32 28 23 21 20 20 20 19 19 18 17 16 16 16 15 16 17 19 21 21 23 24 22 20 21 21 19 18 17 16 15 14 14 13 13 13 13 14 15 16 16 17 17 18 18 19 21 22 23 23 24 24 23 22 22 22 23 23 23 24 24
30 32 30 23 21 21 21 21 20 19 17 16 16 15 15 15 16 17 17 18 18 19 21 20 19 19 21 20 19 18 16 16 15 15 14 14 14 15 15 16 17 17 18 18 18 19 19 21 22 23 23 24 24 24 24 23 24 24 24 24 24 24
30 31 31 24 21 22 21 21 20 19 17 16 15 14 14 14 15 16 15 15 15 16 19 19 18 19 21 20 19 18 16 16 16 16 15 15 16 16 16 17 18 18 19 19 19 19 20 21 22 23 23 24 24 24 24 25 25 25 25 25 25 25
35 31 30 25 22 21 20 20 20 18 17 15 14 14 14 14 14 15 13 13 14 15 17 18 17 19 21 20 19 18 17 17 17 17 16 16 16 17 17 17 18 19 20 20 20 20 20 21 21 22 23 24 25 24 24 25 26 26 26 27 26 26
35 29 27 26 23 21 19 19 19 18 16 15 15 14 15 15 14 14 14 14 15 14 16 18 17 18 20 20 19 18 17 17 17 17 17 16 17 17 17 17 18 19 20 21 21 21 21 22 22 21 22 23 24 25 26 26 27 27 26 27 27 26
31 25 25 29 26 21 18 18 18 17 16 15 15 15 14 14 14 15 15 15 16 16 17 19 18 18 19 20 20 19 18 18 18 17 17 17 17 17 17 17 18 19 20 20 21 22 22 22 22 21 21 21 22 24 26 27 28 29 28 27 28 27
29 23 23 28 29 24 19 18 17 17 16 15 15 15 15 14 14 14 14 15 17 18 18 20 18 18 20 21 20 19 18 18 18 17 17 17 17 17 17 17 17 18 19 21 22 23 23 22 21 21 21 21 21 22 23 25 27 30 30 29 29 28
30 27 24 26 29 28 24 20 17 17 17 16 16 16 15 13 13 13 13 15 17 18 20 21 19 18 20 21 21 20 19 18 18 17 17 17 17 17 17 17 18 18 19 21 23 24 24 23 22 21 21 21 21 21 21 22 24 27 31 31 30 29
29 28 26 26 28 30 28 23 19 18 18 17 16 16 15 14 14 15 15 15 16 17 19 20 19 19 20 22 21 20 19 18 17 17 17 17 17 17 17 18 18 19 20 21 22 23 23 23 22 22 22 22 22 22 21 22 22 24 28 31 32 31
28 27 25 24 25 27 27 25 21 20 19 17 17 17 17 17 17 16 16 15 16 17 19 20 19 19 21 21 21 20 19 18 18 17 17 17 17 17 18 18 19 20 21 21 20 21 21 22 23 23 23 23 23 23 23 23 24 24 25 28 31 32
26 28 25 21 21 21 23 24 22 21 19 17 17 18 19 19 18 17 17 18 19 19 21 22 21 20 21 22 21 20 18 18 18 17 17 17 17 18 19 19 20 20 20 20 19 20 22 23 23 24 25 25 25 25 25 25 25 25 26 26 28 30
24 25 26 23 20 18 19 21 21 20 18 17 18 18 19 19 19 19 19 21 20 20 22 24 22 21 22 22 21 19 18 18 18 17 16 17 17 18 19 20 20 20 20 20 20 22 24 25 25 25 26 26 27 27 27 28 27 27 27 26 27 29
23 22 24 23 21 19 18 19 20 19 17 17 17 17 18 19 20 20 21 21 20 19 21 21 20 20 22 22 20 19 19 19 18 17 17 17 18 19 20 20 20 20 19 20 22 24 26 26 26 26 26 26 27 27 28 28 29 29 28 28 27 28
21 20 21 21 21 19 17 17 18 19 18 17 16 16 17 19 20 21 20 20 18 18 20 18 17 20 22 22 20 19 19 19 18 17 17 17 18 19 20 20 20 20 20 22 24 26 27 27 26 25 25 25 26 27 27 28 29 29 29 29 27 27
15 19 20 20 19 17 15 15 17 18 18 16 15 17 19 20 21 20 20 19 17 18 21 17 16 20 22 22 20 19 19 19 18 17 17 18 19 20 20 20 20 21 22 23 25 26 27 26 25 24 24 25 26 27 28 28 29 29 29 28 27 26
8 15 19 18 17 15 15 16 18 18 17 16 16 18 20 21 21 21 21 19 16 19 21 16 16 21 23 22 21 19 19 18 17 18 18 19 20 20 20 20 21 22 23 25 25 26 26 25 24 24 24 25 26 28 29 29 30 29 29 28 28 27
5 9 13 15 15 15 15 17 18 17 15 15 15 16 18 19 20 21 22 19 18 21 22 18 18 21 22 21 20 19 18 18 18 19 19 19 20 20 20 21 22 24 24 25 25 24 24 24 24 24 24 26 28 29 29 29 29 29 29 29 28 28
7 8 11 13 14 14 15 17 17 16 15 14 14 15 16 17 19 22 22 20 19 21 22 19 19 20 22 20 19 18 17 18 19 19 20 20 20 20 21 23 24 25 25 24 24 23 23 24 24 25 26 27 28 29 29 28 28 29 29 30 29 29
9 9 10 12 14 15 16 18 18 16 15 14 14 15 15 17 19 21 21 20 19 20 21 20 20 21 21 19 18 18 18 19 19 20 20 20 21 21 22 24 25 25 25 24 24 23 24 24 25 26 27 28 28 28 28 28 28 29 29 30 31 31

ECMWFFLT2_500_spd_141.txt.gz
Wind_Speed
24 23 23 25 25 24 23 22 20 18 16 15 14 13 13 13 13 13 14 13 12 11 10 9 7 5 5 6 7 7 8 8 9 9 10 10 11 12 12 13 13 13 13 12 12 12 11 11 11 11 11 12 13 13 12 11 10 9 9 8 8 8
24 23 24 25 25 24 23 22 20 18 17 16 15 14 13 13 13 14 14 14 13 12 11 9 8 6 5 5 6 6 7 7 8 9 10 10 11 12 13 13 14 14 14 14 13 13 13 13 12 12 11 11 13 14 14 13 12 11 10 10 9 9
24 23 24 26 25 24 23 22 20 19 18 17 15 14 14 13 14 14 14 14 13 12 11 10 9 7 5 5 6 6 6 7 8 8 9 10 11 12 13 14 14 15 15 15 15 15 14 13 13 13 12 11 12 14 15 15 14 13 12 12 11 11
24 24 25 25 24 23 23 22 21 20 19 17 16 15 14 14 14 14 15 14 13 13 12 12 10 9 7 5 5 5 6 6 7 8 9 10 11 12 13 14 14 15 15 16 16 16 15 14 14 13 13 12 11 12 14 16 16 15 15 14 13 13
25 25 26 25 24 23 23 22 21 20 19 18 17 16 15 15 15 14 14 14 14 13 13 13 11 10 8 6 6 6 6 6 7 8 9 10 11 11 12 13 14 15 15 16 17 17 17 16 15 14 14 13 12 11 12 14 16 16 16 15 15 14
26 26 26 25 23 23 22 22 22 21 20 18 17 16 16 15 15 15 14 14 14 14 14 13 12 11 9 8 7 7 7 7 7 8 9 10 10 11 12 13 14 15 16 16 17 17 18 17 17 16 15 14 13 12 12 13 15 16 17 16 16 16
27 27 26 24 23 23 22 22 21 21 20 19 17 17 17 16 16 15 14 14 14 14 14 14 13 12 10 9 8 8 8 8 8 8 9 10 10 11 12 13 14 15 16 16 17 18 18 18 18 17 16 15 14 14 13 13 14 16 17 17 17 17
28 27 25 24 23 23 22 22 21 21 20 19 18 17 17 17 16 15 14 13 14 15 15 15 14 13 11 11 10 9 9 9 9 9 9 10 10 11 12 13 13 14 15 16 17 18 18 19 18 18 17 16 15 15 14 14 15 16 18 19 19 19
27 25 24 23 22 22 22 22 22 22 21 19 18 18 18 17 16 15 13 13 15 16 15 15 14 13 13 12 11 10 10 10 9 9 9 9 10 11 11 12 12 13 14 14 15 17 18 18 19 19 19 18 17 16 15 16 16 17 18 19 20 20
26 24 24 23 22 22 22 22 23 22 21 20 19 19 18 17 17 15 13 14 15 16 16 15 15 14 14 13 12 12 12 11 10 9 9 9 9 10 10 10 11 12 12 13 14 15 16 17 18 19 19 19 19 18 17 17 17 18 18 19 20 21
27 24 23 23 22 22 23 23 23 22 21 20 20 19 18 18 16 14 14 14 15 16 15 14 15 15 14 14 14 14 13 12 11 11 10 10 9 10 10 10 10 11 11 11 12 13 14 15 17 18 19 20 21 21 20 20 19 19 19 19 20 20
26 24 23 23 23 23 24 24 23 22 21 21 21 20 18 17 16 14 14 15 15 15 14 14 15 15 15 15 14 14 14 13 13 12 11 11 10 10 10 10 10 10 11 11 11 12 14 15 16 18 19 20 20 21 21 21 21 21 20 20 20 21
24 23 23 23 25 25 25 25 24 22 22 22 21 19 18 17 15 14 14 15 15 14 14 15 16 16 16 15 15 15 15 15 14 14 12 12 11 10 10 10 10 10 11 12 13 14 15 16 17 17 18 19 19 20 20 21 21 21 21 21 21 21
24 23 24 25 26 26 25 25 24 23 22 21 20 19 17 16 15 14 15 15 15 15 15 16 16 17 17 16 16 16 16 16 16 15 13 13 12 11 11 11 11 12 12 13 14 15 16 17 17 17 17 18 19 19 20 20 21 22 22 21 21 21
25 26 27 28 28 27 26 26 24 23 22 20 19 18 17 16 15 15 16 16 17 17 17 17 17 17 17 16 16 16 17 17 16 15 14 13 13 12 12 12 12 12 13 13 14 15 16 17 18 18 18 19 19 19 19 20 21 22 22 22 22 21
28 30 31 32 32 31 29 27 25 22 21 20 19 18 17 16 16 17 18 18 19 19 18 18 18 18 17 17 16 17 17 17 17 16 15 14 14 13 13 13 13 13 14 14 14 15 16 17 18 19 19 20 20 20 21 21 21 22 23 23 23 23
31 33 34 34 34 34 33 29 24 23 22 20 20 19 19 18 18 19 19 20 21 20 19 19 19 19 18 18 17 18 18 18 18 17 16 16 16 14 14 14 14 14 14 15 15 16 16 17 18 19 20 20 20 21 22 22 23 23 23 23 23 24
33 35 35 33 32 34 36 30 25 25 23 21 21 21 20 19 19 19 20 21 21 20 19 20 20 20 20 19 19 19 19 19 18 18 17 17 17 16 15 15 15 15 16 16 17 17 17 18 19 20 21 21 22 22 22 22 23 23 24 24 24 25
35 36 34 32 31 33 35 32 27 27 24 22 22 21 21 20 19 19 19 19 19 18 18 20 21 22 22 22 21 20 19 19 19 19 18 18 18 17 16 16 16 16 17 17 18 18 18 19 19 21 22 22 23 23 22 23 23 23 24 24 25 25
35 34 32 32 31 31 33 32 30 28 24 23 22 22 21 20 18 17 17 17 16 16 16 18 21 22 23 23 23 22 20 19 19 19 19 19 19 17 17 17 17 17 17 18 18 18 19 19 20 21 22 22 23 23 23 23 23 23 23 24 25 25
33 32 31 31 30 29 31 32 31 27 24 23 23 22 22 19 17 16 15 15 15 15 15 16 18 19 19 21 22 22 20 19 19 19 19 19 19 18 18 18 18 18 18 18 18 18 19 19 20 21 22 22 22 22 23 23 24 23 23 24 25 26
31 30 29 29 29 29 30 32 31 27 23 23 22 23 22 19 17 16 15 14 14 14 13 14 15 16 16 18 20 22 20 19 19 19 19 20 20 19 19 19 19 18 18 18 18 18 18 19 21 22 23 23 22 22 22 22 23 24 23 23 24 26
29 28 28 27 29 28 29 32 31 26 23 22 22 22 21 19 17 15 14 14 13 13 13 14 14 14 15 17 20 21 20 19 19 19 19 20 19 19 19 20 20 19 18 18 18 17 18 20 21 22 22 23 23 24 24 23 23 23 22 22 23 25
28 27 28 27 28 25 26 30 30 26 23 21 20 21 20 18 15 13 13 13 13 13 13 14 14 14 15 16 19 21 20 19 18 18 19 19 20 20 20 20 20 19 19 18 18 18 19 21 21 21 21 21 22 23 25 26 27 27 25 23 23 24
26 28 29 28 28 25 23 27 29 26 23 20 20 20 19 17 15 13 13 13 13 12 12 13 14 15 15 16 19 21 20 18 18 18 19 19 20 20 20 20 20 20 19 19 19 19 21 21 21 21 20 20 20 21 23 24 26 29 30 27 24 23
23 26 28 28 29 27 25 27 30 28 24 21 20 20 18 17 16 15 15 14 14 13 12 13 14 15 16 17 19 20 20 18 18 18 19 20 20 20 20 19 20 20 20 19 20 21 22 22 21 20 21 21 22 21 22 22 22 25 30 31 27 24
20 22 24 27 28 27 24 25 29 30 26 23 21 20 19 18 17 17 16 16 15 14 14 14 13 14 17 17 18 20 20 18 18 18 19 20 20 20 19 19 20 20 20 20 20 22 22 22 22 22 22 23 24 23 22 21 20 20 24 29 30 27
18 20 21 23 27 27 25 24 26 28 28 26 23 21 19 18 18 18 17 16 15 16 17 15 13 14 16 17 19 20 19 18 18 19 19 20 20 20 19 19 20 19 19 19 20 21 22 22 23 24 25 25 25 24 22 21 20 19 19 23 28 30
16 20 21 22 26 29 28 26 24 25 27 28 26 23 20 19 20 19 18 17 17 18 19 16 14 14 15 16 19 20 19 18 18 19 20 21 20 20 19 20 19 19 19 19 20 21 21 22 24 26 27 27 26 24 23 22 21 20 19 20 23 28
16 19 21 23 26 28 28 25 23 23 25 26 26 23 20 20 20 20 19 18 18 20 19 17 15 15 16 17 19 20 18 17 18 20 21 21 20 20 19 19 19 19 19 20 20 20 22 24 25 27 27 27 26 24 23 23 22 22 21 21 21 23
18 20 22 23 24 26 26 23 22 22 24 25 24 22 21 21 22 21 20 19 19 20 18 16 15 16 17 20 21 20 18 17 19 21 21 21 20 20 19 18 18 19 19 20 20 21 23 25 26 27 26 26 25 25 24 24 25 26 25 25 23 22
17 21 24 23 23 24 24 22 20 21 22 23 24 23 22 23 23 21 20 19 19 19 18 16 15 16 19 21 22 20 17 17 19 21 22 21 20 19 18 18 18 18 19 20 21 22 24 25 26 26 25 25 25 25 26 26 27 28 28 27 25 23
13 18 23 23 22 23 24 22 20 19 21 23 24 24 24 23 22 20 19 19 19 19 17 16 16 17 18 20 22 20 17 17 19 21 21 21 19 18 18 17 18 18 19 21 22 24 25 26 26 25 25 25 26 26 27 28 28 29 29 28 27 25
6 12 20 21 20 22 23 21 20 19 20 22 24 24 24 23 22 19 18 18 19 19 17 17 17 17 17 19 21 18 16 17 19 21 21 20 18 18 17 17 17 18 20 21 23 24 26 26 26 25 26 26 27 28 28 28 29 29 29 29 28 27
5 9 15 19 19 21 21 20 19 19 20 22 23 24 24 23 21 19 18 19 19 18 18 18 18 18 18 19 19 17 16 18 19 20 19 18 18 18 17 17 17 19 20 22 24 25 26 26 26 26 27 28 28 29 29 29 29 29 29 29 29 28
6 8 13 18 19 20 21 20 20 20 20 22 23 24 23 22 20 19 19 19 19 18 19 19 19 19 18 19 19 17 17 18 18 19 18 18 18 18 17 17 17 19 21 23 25 26 27 27 27 27 28 28 29 29 30 30 29 29 29 29 29 29
7 9 12 17 19 19 20 20 20 20 21 22 23 23 22 21 20 19 19 18 18 19 19 19 20 20 19 19 19 17 17 17 17 17 18 18 19 18 18 17 18 20 22 24 26 27 27 27 27 28 28 28 29 30 30 30 29 29 29 30 30 30